Other Public Products
Issued by NWS Charleston, SC

Home | Current Version | Previous Version | Text Only | Print | Product List | Glossary On
Versions: 1 2 3 4 5 6 7 8 9 10 11 12 13 14 15 16 17 18 19 20 21 22 23 24 25 26 27 28 29 30 31 32 33 34 35 36 37 38 39 40 41 42 43 44 45 46 47 48 49 50
000
FPUS82 KCHS 232327
OPUCHS

TEST...KCHS/KSAV Gateway Observations...TEST
National Weather Service Charleston SC
700 PM EDT SUN APR 23 2017

NOTE: "fair" indicates few or no clouds below 12,000 feet with no
significant weather and/or obstructions to visibility.

SCZ050-WAZ558-NCZ071-TXZ119-213-PAZ071-DCZ001-FLZ074-172-MI076-
NYZ176-178-MAZ016-IL014-TNZ027-NJZ106-GAZ044-MD014-240000-

...Gateway Observations for Charleston International...

CITY           SKY/WX    TMP DP  RH WIND       PRES   REMARKS
Chas Airport   CLOUDY    76  66  71 S14       29.78F
Seattle        LGT RAIN  50  46  86 S12       29.84F
Charlotte      LGT RAIN  54  51  90 NE12      29.89F
Dallas DFW     MOSUNNY   73  38  27 N10       30.01F
Dallas Love    MOSUNNY   74  37  26 N12G21    30.02F
Philladelphia  CLOUDY    59  46  62 S10       30.09R
Wash National  CLOUDY    59  44  57 E5        30.09S
Baltimore      CLOUDY    57  44  62 CALM      30.09R
Miami          CLOUDY    75  70  84 NW5       29.75S
Detroit        MOSUNNY   63  29  27 S8        30.06S
Newark         MOCLDY    59  40  49 SE6       30.08R
Laguardia      MOCLDY    55  41  59 S14       30.08S
J F K          MOCLDY    51  44  77 S12       30.11S
Boston Logan   PTCLDY    56  42  59 S21       30.04R
Ft. Lauderdale MOCLDY    74  71  91 NW5       29.73F
Chicago O`Hare MOSUNNY   68  30  24 E13       30.03S
Chicago Midway MOSUNNY   67  32  27 E14       30.05S
Houston Bush   MOSUNNY   72  47  40 N15G23    29.98F
Houston Hobby  MOSUNNY   73  47  39 N14       29.97F
Nashville      LGT RAIN  52  50  93 N15       29.84S FOG
Atlanta        PTSUNNY   64  59  83 NW7       29.76S

$$

GAZ044-118-TXZ119-213-NCZ071-DCZ001-MDZ014-506-PAZ021-071-NJZ106-
NYZ176-178-MAZ106-OHZ011-021-055-MIZ076-KYZ091-ILZ014-INZ047-
MNZ060-ONZ431-240000-

...Gateway Observations for Savannah International...

CITY           SKY/WX    TMP DP  RH WIND       PRES   REMARKS
Savannah Arpt  MOSUNNY   81  61  50 S13       29.74S
Atlanta        PTSUNNY   64  59  83 NW7       29.76S
Charlotte      LGT RAIN  54  51  90 NE12      29.89F
Dallas DFW     MOSUNNY   73  38  27 N10       30.01F
Houston Bush   MOSUNNY   72  47  40 N15G23    29.98F
Wash National  CLOUDY    59  44  57 E5        30.09S
Wash Dulles    CLOUDY    56  42  59 SE3       30.08S
Baltimore      CLOUDY    57  44  62 CALM      30.09R
Philadelphia   CLOUDY    59  46  62 S10       30.09R
Newark         MOCLDY    59  40  49 SE6       30.08R
Laguardia      MOCLDY    55  41  59 S14       30.08S
J F K          MOCLDY    51  44  77 S12       30.11S
Boston         PTCLDY    56  42  59 S21       30.04R
Pittsburg      PTSUNNY   67  32  27 CALM      30.01S
Akron          CLOUDY    66  31  27 E6        30.03R
Cleveland      CLOUDY    56  32  40 N9        30.08R
Cincinnati     CLOUDY    63  35  35 NE13      29.96R
Columbus       MOSUNNY   64  37  37 E7        29.98S
Detroit        MOSUNNY   63  29  27 S8        30.06S
Chicago O`Hare MOSUNNY   68  30  24 E13       30.03S
Minneapolis    CLOUDY    69  33  26 VRB3      29.89F
Indianapolis   SUNNY     69  30  23 NE16      29.98S
Toronto Canada MOSUNNY   66  32  28 W12G21    30.01R

$$




USA.gov is the U.S. government's official web portal to all federal, state and local government web resources and services.